Regional Weather Roundup
Issued by NWS Goodland, KS

Home | Current Version | Previous Version | Text Only | Print | Product List | Glossary Off
Versions: 1 2 3 4 5 6 7 8 9 10 11 12 13 14 15 16 17 18 19 20 21 22 23 24 25 26 27 28 29 30 31 32 33 34 35 36 37 38 39 40 41 42 43 44 45 46 47 48 49 50

000
ASUS43 KGLD 280459
RWRGLD

GOODLAND FORECAST AREA HOURLY WEATHER ROUNDUP
NATIONAL WEATHER SERVICE GOODLAND KS
1100 PM MDT MON JUL 27 2015

...OFFICIAL OBSERVATIONS...

CITY           SKY/WX    TMP DP  RH WIND       PRES   REMARKS
GOODLAND KS    PTCLDY    79  65  62 S16       29.81S
HILL CITY KS   CLEAR     83  69  62 S13       29.79R
IMPERIAL NEB   CLEAR     81  68  64 S15       29.74S
MCCOOK NEB     CLEAR     83  69  62 S20G26    29.73F
AKRON CO         N/A    N/A N/A N/A MISG      29.83S
BURLINGTON CO  CLEAR     73  60  63 S13       29.84S
LIMON CO       CLEAR     72  52  49 VRB6      29.93R
$$

...UNOFFICIAL OBSERVATIONS...

CITY           SKY/WX    TMP DP  RH WIND       PRES   REMARKS
COLBY KS       CLEAR     81  72  74 S17       29.81F
LENORA KS        N/A     80  32  17 MISG        N/A
NORTON KS      CLEAR     81  63  54 SE13G21   29.77S
SHARON SPRINGS   N/A     79  68  69 N17         N/A
KIT CARSON CO    N/A     72  60  65 MISG        N/A
YUMA CO          N/A     72  60  65 SW6         N/A
$$



USA.gov is the U.S. government's official web portal to all federal, state and local government web resources and services.